Torna al catalogo

ARIANE 1 DEB

AttivoSSO
NORAD 35408·DEBRIS·🇫🇷 France

Lanciato Feb 22, 1986 da Guiana Space Centre

Loading…

Prossimi Passaggi (prossime 24 ore)

TLE

AggiornatoSource: Space-Track

Epoca: Sep 14, 2026, 01:17 UTC

1 35408U 86019FL  26257.05359727  .00000281  00000-0  12664-3 0  9997
2 35408  98.3244 292.4334 0030088 258.8037 132.0029 14.29139604 37850

Traccia ARIANE 1 DEB in tempo reale con AllMySat

Download on the App Store